Time,TemperatureF,DewpointF,PressureIn,WindDirection,WindDirectionDegrees,WindSpeedMPH,WindSpeedGustMPH,Humidity,HourlyPrecipIn,Conditions,Clouds,dailyrainin,SoftwareType,DateUTC
2013-04-10 00:05:00,74.2,69.0,30.05,ESE,115,0.0,9.0,85,0.00,,,0.00,weatherlink.com 1.10,2013-04-10 10:05:00,
2013-04-10 00:23:00,74.0,69.0,30.05,SSE,159,3.0,8.0,85,0.00,,,0.00,weatherlink.com 1.10,2013-04-10 10:23:00,
2013-04-10 00:41:00,73.9,69.0,30.04,SSE,157,4.0,9.0,85,0.00,,,0.00,weatherlink.com 1.10,2013-04-10 10:41:00,
2013-04-10 00:59:00,73.6,69.0,30.04,East,82,0.0,5.0,87,0.00,,,0.00,weatherlink.com 1.10,2013-04-10 10:59:00,
2013-04-10 01:17:00,73.4,70.0,30.03,ESE,117,4.0,11.0,88,0.00,,,0.00,weatherlink.com 1.10,2013-04-10 11:17:00,
2013-04-10 01:35:00,72.9,69.0,30.03,East,100,0.0,9.0,89,0.04,,,0.04,weatherlink.com 1.10,2013-04-10 11:35:00,
2013-04-10 01:53:00,72.8,70.0,30.02,SE,124,2.0,8.0,90,0.05,,,0.05,weatherlink.com 1.10,2013-04-10 11:53:00,
2013-04-10 02:11:00,72.7,69.0,30.02,SE,140,4.0,8.0,89,0.05,,,0.05,weatherlink.com 1.10,2013-04-10 12:11:00,
2013-04-10 02:29:00,72.8,69.0,30.02,East,97,1.0,5.0,88,0.03,,,0.05,weatherlink.com 1.10,2013-04-10 12:29:00,
2013-04-10 02:48:00,73.1,69.0,30.02,East,80,2.0,8.0,87,0.00,,,0.05,weatherlink.com 1.10,2013-04-10 12:48:00,
2013-04-10 03:06:00,73.0,69.0,30.02,SE,125,0.0,8.0,87,0.00,,,0.05,weatherlink.com 1.10,2013-04-10 13:06:00,
2013-04-10 03:24:00,73.1,69.0,30.02,East,99,0.0,7.0,86,0.00,,,0.05,weatherlink.com 1.10,2013-04-10 13:24:00,
2013-04-10 03:42:00,73.3,69.0,30.01,SE,138,2.0,6.0,87,0.00,,,0.05,weatherlink.com 1.10,2013-04-10 13:42:00,
2013-04-10 04:01:00,73.4,69.0,30.01,ENE,61,0.0,4.0,87,0.00,,,0.05,weatherlink.com 1.10,2013-04-10 14:01:00,
2013-04-10 04:19:00,73.2,69.0,30.01,East,88,0.0,7.0,88,0.00,,,0.05,weatherlink.com 1.10,2013-04-10 14:19:00,
2013-04-10 04:37:00,72.8,69.0,30.01,SE,126,0.0,4.0,88,0.00,,,0.05,weatherlink.com 1.10,2013-04-10 14:37:00,
2013-04-10 04:55:00,72.9,69.0,30.01,SSE,150,0.0,1.0,88,0.00,,,0.05,weatherlink.com 1.10,2013-04-10 14:55:00,
2013-04-10 05:13:00,72.8,69.0,30.01,SE,130,0.0,3.0,87,0.00,,,0.05,weatherlink.com 1.10,2013-04-10 15:13:00,
2013-04-10 05:32:00,72.6,69.0,30.02,SSE,168,0.0,4.0,87,0.00,,,0.05,weatherlink.com 1.10,2013-04-10 15:32:00,
2013-04-10 06:09:00,72.8,69.0,30.02,ESE,121,0.0,3.0,87,0.00,,,0.05,weatherlink.com 1.10,2013-04-10 16:09:00,
2013-04-10 06:27:00,72.8,69.0,30.03,SSE,163,0.0,5.0,87,0.00,,,0.05,weatherlink.com 1.10,2013-04-10 16:27:00,
2013-04-10 06:46:00,73.3,69.0,30.03,SE,146,0.0,5.0,86,0.00,,,0.05,weatherlink.com 1.10,2013-04-10 16:46:00,
2013-04-10 07:04:00,74.3,69.0,30.03,East,97,0.0,8.0,84,0.00,,,0.05,weatherlink.com 1.10,2013-04-10 17:04:00,
2013-04-10 07:22:00,75.4,70.0,30.04,East,98,3.0,6.0,83,0.00,,,0.05,weatherlink.com 1.10,2013-04-10 17:22:00,
2013-04-10 07:40:00,75.9,70.0,30.04,East,88,0.0,8.0,83,0.00,,,0.05,weatherlink.com 1.10,2013-04-10 17:40:00,
2013-04-10 07:59:00,75.3,70.0,30.05,ESE,122,7.0,7.0,83,0.00,,,0.05,weatherlink.com 1.10,2013-04-10 17:59:00,
2013-04-10 08:18:00,77.0,71.0,30.05,SE,140,1.0,8.0,82,0.00,,,0.05,weatherlink.com 1.10,2013-04-10 18:18:00,
2013-04-10 08:36:00,77.7,71.0,30.05,ESE,107,1.0,7.0,81,0.00,,,0.05,weatherlink.com 1.10,2013-04-10 18:36:00,
2013-04-10 08:54:00,78.6,71.0,30.06,SSE,159,1.0,5.0,78,0.00,,,0.05,weatherlink.com 1.10,2013-04-10 18:54:00,
2013-04-10 09:14:00,78.1,71.0,30.06,ESE,102,4.0,7.0,78,0.00,,,0.05,weatherlink.com 1.10,2013-04-10 19:14:00,
2013-04-10 09:32:00,77.3,71.0,30.06,East,92,1.0,8.0,81,0.00,,,0.05,weatherlink.com 1.10,2013-04-10 19:32:00,
2013-04-10 10:12:00,79.2,72.0,30.06,East,79,5.0,8.0,79,0.00,,,0.05,weatherlink.com 1.10,2013-04-10 20:12:00,
2013-04-10 10:31:00,79.4,72.0,30.06,ENE,74,3.0,11.0,77,0.00,,,0.05,weatherlink.com 1.10,2013-04-10 20:31:00,
2013-04-10 11:54:00,78.0,71.0,30.05,East,88,5.0,9.0,78,0.00,,,0.05,weatherlink.com 1.10,2013-04-10 21:54:00,
2013-04-10 12:13:00,78.0,71.0,30.04,ENE,57,2.0,8.0,79,0.00,,,0.05,weatherlink.com 1.10,2013-04-10 22:13:00,
2013-04-10 12:50:00,78.9,70.0,30.03,East,85,2.0,10.0,75,0.00,,,0.05,weatherlink.com 1.10,2013-04-10 22:50:00,
2013-04-10 13:09:00,78.5,70.0,30.02,SE,136,4.0,11.0,76,0.00,,,0.05,weatherlink.com 1.10,2013-04-10 23:09:00,
2013-04-10 13:27:00,77.7,70.0,30.01,SE,135,4.0,11.0,76,0.00,,,0.05,weatherlink.com 1.10,2013-04-10 23:27:00,
2013-04-10 13:46:00,77.8,70.0,30.00,SSW,192,0.0,10.0,77,0.00,,,0.05,weatherlink.com 1.10,2013-04-10 23:46:00,
2013-04-10 14:04:00,77.8,70.0,30.00,East,79,2.0,10.0,77,0.00,,,0.05,weatherlink.com 1.10,2013-04-11 00:04:00,
2013-04-10 14:22:00,78.0,70.0,29.99,East,98,7.0,9.0,77,0.00,,,0.05,weatherlink.com 1.10,2013-04-11 00:22:00,
2013-04-10 14:40:00,79.3,71.0,29.99,SSE,161,4.0,7.0,77,0.00,,,0.05,weatherlink.com 1.10,2013-04-11 00:40:00,
2013-04-10 14:59:00,79.8,71.0,29.99,East,91,2.0,8.0,74,0.00,,,0.05,weatherlink.com 1.10,2013-04-11 00:59:00,
2013-04-10 15:18:00,79.1,70.0,29.98,East,83,0.0,7.0,75,0.00,,,0.05,weatherlink.com 1.10,2013-04-11 01:18:00,
2013-04-10 15:37:00,78.8,70.0,29.98,ESE,111,3.0,9.0,75,0.00,,,0.05,weatherlink.com 1.10,2013-04-11 01:37:00,
2013-04-10 15:54:00,77.3,70.0,29.98,South,169,1.0,7.0,79,0.00,,,0.05,weatherlink.com 1.10,2013-04-11 01:54:00,
2013-04-10 16:13:00,77.1,69.0,29.98,East,93,2.0,7.0,77,0.00,,,0.05,weatherlink.com 1.10,2013-04-11 02:13:00,
2013-04-10 16:32:00,77.0,70.0,29.98,ENE,59,2.0,7.0,78,0.00,,,0.05,weatherlink.com 1.10,2013-04-11 02:32:00,
2013-04-10 16:50:00,76.1,68.0,29.98,ESE,117,0.0,11.0,77,0.00,,,0.05,weatherlink.com 1.10,2013-04-11 02:50:00,
2013-04-10 17:46:00,75.3,69.0,29.99,SE,139,5.0,9.0,80,0.00,,,0.05,weatherlink.com 1.10,2013-04-11 03:46:00,
2013-04-10 18:04:00,75.0,68.0,29.99,ESE,120,1.0,5.0,80,0.00,,,0.05,weatherlink.com 1.10,2013-04-11 04:04:00,
2013-04-10 18:22:00,74.9,68.0,30.00,East,82,2.0,7.0,80,0.00,,,0.05,weatherlink.com 1.10,2013-04-11 04:22:00,
2013-04-10 18:40:00,74.9,68.0,30.01,ESE,102,3.0,5.0,80,0.00,,,0.05,weatherlink.com 1.10,2013-04-11 04:40:00,
2013-04-10 18:59:00,74.8,69.0,30.01,East,96,5.0,5.0,81,0.00,,,0.05,weatherlink.com 1.10,2013-04-11 04:59:00,
2013-04-10 19:18:00,74.8,69.0,30.01,ENE,64,0.0,5.0,81,0.00,,,0.05,weatherlink.com 1.10,2013-04-11 05:18:00,
2013-04-10 19:36:00,74.7,68.0,30.02,East,94,0.0,4.0,81,0.00,,,0.05,weatherlink.com 1.10,2013-04-11 05:36:00,
2013-04-10 19:54:00,74.7,69.0,30.02,East,90,3.0,11.0,82,0.00,,,0.05,weatherlink.com 1.10,2013-04-11 05:54:00,
2013-04-10 20:12:00,74.7,70.0,30.03,ESE,120,5.0,7.0,84,0.00,,,0.05,weatherlink.com 1.10,2013-04-11 06:12:00,
2013-04-10 20:31:00,74.7,69.0,30.03,East,86,2.0,8.0,83,0.00,,,0.05,weatherlink.com 1.10,2013-04-11 06:31:00,
2013-04-10 20:49:00,74.5,69.0,30.04,East,101,2.0,6.0,84,0.00,,,0.05,weatherlink.com 1.10,2013-04-11 06:49:00,
2013-04-10 21:07:00,74.4,69.0,30.05,SSE,163,6.0,7.0,82,0.00,,,0.05,weatherlink.com 1.10,2013-04-11 07:07:00,
2013-04-10 21:25:00,74.5,69.0,30.05,ENE,67,0.0,8.0,82,0.00,,,0.05,weatherlink.com 1.10,2013-04-11 07:25:00,
2013-04-10 21:43:00,74.5,69.0,30.05,East,84,1.0,4.0,83,0.00,,,0.05,weatherlink.com 1.10,2013-04-11 07:43:00,
2013-04-10 22:02:00,74.4,69.0,30.05,North,355,3.0,7.0,83,0.00,,,0.05,weatherlink.com 1.10,2013-04-11 08:02:00,
2013-04-10 22:39:00,74.4,69.0,30.06,NE,51,3.0,9.0,83,0.00,,,0.05,weatherlink.com 1.10,2013-04-11 08:39:00,
2013-04-10 22:57:00,74.5,69.0,30.05,ENE,76,2.0,10.0,84,0.00,,,0.05,weatherlink.com 1.10,2013-04-11 08:57:00,
2013-04-10 23:34:00,74.4,70.0,30.04,NNE,17,4.0,9.0,85,0.00,,,0.05,weatherlink.com 1.10,2013-04-11 09:34:00,
2013-04-10 23:52:00,74.4,70.0,30.04,ESE,121,1.0,9.0,85,0.00,,,0.05,weatherlink.com 1.10,2013-04-11 09:52:00,